Time,TemperatureF,DewpointF,PressureIn,WindDirection,WindDirectionDegrees,WindSpeedMPH,WindSpeedGustMPH,Humidity,HourlyPrecipIn,Conditions,Clouds,dailyrainin,SoftwareType,DateUTC
2013-04-05 00:02:00,61.0,49.0,-100.00,West,264,2.0,10.0,64,0.00,,,0.00,,2013-04-05 07:02:00,
2013-04-05 00:11:00,61.0,49.0,-100.00,West,264,2.0,10.0,64,0.00,,,0.00,,2013-04-05 07:11:00,
2013-04-05 00:22:00,61.0,49.0,-100.00,WSW,253,8.0,12.0,65,0.00,,,0.00,,2013-04-05 07:22:00,
2013-04-05 00:32:00,61.0,50.0,-100.00,West,272,4.0,10.0,67,0.00,,,0.00,,2013-04-05 07:32:00,
2013-04-05 00:42:00,61.0,50.0,-100.00,West,272,4.0,10.0,67,0.00,,,0.00,,2013-04-05 07:42:00,
2013-04-05 00:52:00,61.0,50.0,-100.00,NNE,23,2.0,9.0,67,0.00,,,0.00,,2013-04-05 07:52:00,
2013-04-05 01:02:00,60.0,49.0,-100.00,West,270,5.0,9.0,67,0.00,,,0.00,,2013-04-05 08:02:00,
2013-04-05 01:12:00,60.0,49.0,-100.00,West,270,5.0,9.0,67,0.00,,,0.00,,2013-04-05 08:12:00,
2013-04-05 01:22:00,60.0,49.0,-100.00,WNW,296,3.0,17.0,67,0.00,,,0.00,,2013-04-05 08:22:00,
2013-04-05 01:32:00,60.0,50.0,-100.00,North,1,3.0,12.0,69,0.00,,,0.00,,2013-04-05 08:32:00,
2013-04-05 01:52:00,60.0,50.0,-100.00,NW,316,5.0,11.0,70,0.00,,,0.00,,2013-04-05 08:52:00,
2013-04-05 02:02:00,60.0,50.0,-100.00,WNW,295,2.0,9.0,70,0.00,,,0.00,,2013-04-05 09:02:00,
2013-04-05 02:11:00,60.0,50.0,-100.00,WNW,295,2.0,9.0,70,0.00,,,0.00,,2013-04-05 09:11:00,
2013-04-05 02:22:00,59.0,50.0,-100.00,West,281,2.0,9.0,71,0.00,,,0.00,,2013-04-05 09:22:00,
2013-04-05 02:32:00,59.0,50.0,-100.00,West,278,4.0,9.0,71,0.00,,,0.00,,2013-04-05 09:32:00,
2013-04-05 02:42:00,59.0,50.0,-100.00,West,278,4.0,9.0,71,0.00,,,0.00,,2013-04-05 09:42:00,
2013-04-05 02:52:00,59.0,50.0,-100.00,West,271,5.0,10.0,71,0.00,,,0.00,,2013-04-05 09:52:00,
2013-04-05 03:02:00,59.0,50.0,-100.00,West,271,8.0,15.0,72,0.00,,,0.00,,2013-04-05 10:02:00,
2013-04-05 03:12:00,59.0,50.0,-100.00,West,271,8.0,15.0,72,0.00,,,0.00,,2013-04-05 10:12:00,
2013-04-05 03:22:00,58.0,49.0,-100.00,WNW,291,4.0,12.0,72,0.00,,,0.00,,2013-04-05 10:22:00,
2013-04-05 03:32:00,58.0,49.0,-100.00,West,277,1.0,12.0,72,0.00,,,0.00,,2013-04-05 10:32:00,
2013-04-05 03:42:00,58.0,49.0,-100.00,West,277,1.0,12.0,72,0.00,,,0.00,,2013-04-05 10:42:00,
2013-04-05 03:52:00,58.0,49.0,-100.00,West,270,2.0,6.0,72,0.00,,,0.00,,2013-04-05 10:52:00,
2013-04-05 04:02:00,57.0,48.0,-100.00,West,278,4.0,8.0,73,0.00,,,0.00,,2013-04-05 11:02:00,
2013-04-05 04:12:00,57.0,48.0,-100.00,West,278,4.0,8.0,73,0.00,,,0.00,,2013-04-05 11:12:00,
2013-04-05 04:21:00,57.0,48.0,-100.00,West,261,4.0,9.0,73,0.00,,,0.00,,2013-04-05 11:21:00,
2013-04-05 04:32:00,57.0,48.0,-100.00,NW,307,1.0,10.0,73,0.00,,,0.00,,2013-04-05 11:32:00,
2013-04-05 04:42:00,57.0,48.0,-100.00,NW,307,1.0,10.0,73,0.00,,,0.00,,2013-04-05 11:42:00,
2013-04-05 04:51:00,56.0,47.0,-100.00,West,277,9.0,10.0,73,0.00,,,0.00,,2013-04-05 11:51:00,
2013-04-05 05:02:00,56.0,47.0,-100.00,West,277,9.0,10.0,73,0.00,,,0.00,,2013-04-05 12:02:00,
2013-04-05 05:11:00,56.0,47.0,-100.00,West,277,9.0,10.0,73,0.00,,,0.00,,2013-04-05 12:11:00,
2013-04-05 05:22:00,56.0,47.0,-100.00,West,277,4.0,9.0,73,0.00,,,0.00,,2013-04-05 12:22:00,
2013-04-05 05:32:00,56.0,48.0,-100.00,WNW,295,1.0,10.0,74,0.00,,,0.00,,2013-04-05 12:32:00,
2013-04-05 05:42:00,56.0,48.0,-100.00,WNW,295,1.0,10.0,74,0.00,,,0.00,,2013-04-05 12:42:00,
2013-04-05 05:52:00,56.0,49.0,-100.00,North,358,8.0,10.0,77,0.00,,,0.00,,2013-04-05 12:52:00,
2013-04-05 06:02:00,55.0,48.0,-100.00,West,268,6.0,11.0,77,0.00,,,0.00,,2013-04-05 13:02:00,
2013-04-05 06:11:00,55.0,48.0,-100.00,West,268,6.0,11.0,77,0.00,,,0.00,,2013-04-05 13:11:00,
2013-04-05 06:21:00,55.0,48.0,-100.00,West,281,9.0,12.0,78,0.00,,,0.00,,2013-04-05 13:21:00,
2013-04-05 06:32:00,55.0,49.0,-100.00,NNW,330,4.0,15.0,79,0.00,,,0.00,,2013-04-05 13:32:00,
2013-04-05 06:42:00,55.0,49.0,-100.00,NNW,330,4.0,15.0,79,0.00,,,0.00,,2013-04-05 13:42:00,
2013-04-05 06:52:00,55.0,49.0,-100.00,NNW,330,4.0,15.0,79,0.00,,,0.00,,2013-04-05 13:52:00,
2013-04-05 07:02:00,55.0,48.0,-100.00,SSE,168,0.0,12.0,78,0.00,,,0.00,,2013-04-05 14:02:00,
2013-04-05 07:11:00,55.0,48.0,-100.00,SSE,168,0.0,12.0,78,0.00,,,0.00,,2013-04-05 14:11:00,
2013-04-05 07:22:00,55.0,48.0,-100.00,WSW,247,3.0,11.0,78,0.00,,,0.00,,2013-04-05 14:22:00,
2013-04-05 07:35:00,56.0,49.0,-100.00,WNW,284,4.0,12.0,76,0.00,,,0.00,,2013-04-05 14:35:00,
2013-04-05 07:42:00,56.0,49.0,-100.00,WNW,284,4.0,12.0,76,0.00,,,0.00,,2013-04-05 14:42:00,
2013-04-05 07:52:00,57.0,48.0,-100.00,West,260,4.0,11.0,73,0.00,,,0.00,,2013-04-05 14:52:00,
2013-04-05 08:02:00,57.0,48.0,-100.00,West,260,4.0,11.0,73,0.00,,,0.00,,2013-04-05 15:02:00,
2013-04-05 08:11:00,57.0,48.0,-100.00,West,260,4.0,11.0,73,0.00,,,0.00,,2013-04-05 15:11:00,
2013-04-05 08:22:00,59.0,47.0,-100.00,WNW,291,4.0,9.0,64,0.00,,,0.00,,2013-04-05 15:22:00,
2013-04-05 08:33:00,60.0,46.0,-100.00,NW,310,4.0,17.0,60,0.00,,,0.00,,2013-04-05 15:33:00,
2013-04-05 08:42:00,60.0,46.0,-100.00,NW,310,4.0,17.0,60,0.00,,,0.00,,2013-04-05 15:42:00,
2013-04-05 08:52:00,62.0,47.0,-100.00,WNW,286,6.0,9.0,57,0.00,,,0.00,,2013-04-05 15:52:00,
2013-04-05 09:02:00,62.0,47.0,-100.00,West,267,4.0,13.0,58,0.00,,,0.00,,2013-04-05 16:02:00,
2013-04-05 09:12:00,62.0,47.0,-100.00,West,267,4.0,13.0,58,0.00,,,0.00,,2013-04-05 16:12:00,
2013-04-05 09:22:00,62.0,45.0,-100.00,West,281,8.0,16.0,54,0.00,,,0.00,,2013-04-05 16:22:00,
2013-04-05 09:32:00,64.0,46.0,-100.00,West,267,8.0,15.0,52,0.00,,,0.00,,2013-04-05 16:32:00,
2013-04-05 09:41:00,64.0,46.0,-100.00,West,267,8.0,15.0,52,0.00,,,0.00,,2013-04-05 16:41:00,
2013-04-05 09:52:00,64.0,47.0,-100.00,West,277,5.0,11.0,54,0.00,,,0.00,,2013-04-05 16:52:00,
2013-04-05 10:02:00,65.0,47.0,-100.00,WSW,251,8.0,10.0,53,0.00,,,0.00,,2013-04-05 17:02:00,
2013-04-05 10:12:00,65.0,47.0,-100.00,WSW,251,8.0,10.0,53,0.00,,,0.00,,2013-04-05 17:12:00,
2013-04-05 10:22:00,65.0,47.0,-100.00,WSW,251,8.0,10.0,53,0.00,,,0.00,,2013-04-05 17:22:00,
2013-04-05 10:32:00,65.0,47.0,-100.00,WSW,241,4.0,12.0,53,0.00,,,0.00,,2013-04-05 17:32:00,
2013-04-05 10:43:00,65.0,47.0,-100.00,WSW,241,4.0,12.0,53,0.00,,,0.00,,2013-04-05 17:43:00,
2013-04-05 10:52:00,65.0,46.0,-100.00,WSW,241,4.0,14.0,51,0.00,,,0.00,,2013-04-05 17:52:00,
2013-04-05 11:02:00,66.0,47.0,-100.00,WNW,289,6.0,10.0,51,0.00,,,0.00,,2013-04-05 18:02:00,
2013-04-05 11:22:00,67.0,47.0,-100.00,WNW,300,4.0,11.0,49,0.00,,,0.00,,2013-04-05 18:22:00,
2013-04-05 11:32:00,67.0,47.0,-100.00,WNW,300,4.0,11.0,49,0.00,,,0.00,,2013-04-05 18:32:00,
2013-04-05 11:42:00,67.0,47.0,-100.00,WNW,300,4.0,11.0,49,0.00,,,0.00,,2013-04-05 18:42:00,
2013-04-05 11:52:00,68.0,46.0,-100.00,West,267,8.0,10.0,45,0.00,,,0.00,,2013-04-05 18:52:00,
2013-04-05 12:02:00,69.0,47.0,-100.00,WSW,254,3.0,13.0,45,0.00,,,0.00,,2013-04-05 19:02:00,
2013-04-05 12:13:00,69.0,47.0,-100.00,WSW,254,3.0,13.0,45,0.00,,,0.00,,2013-04-05 19:13:00,
2013-04-05 12:22:00,68.0,48.0,-100.00,WNW,289,12.0,14.0,48,0.00,,,0.00,,2013-04-05 19:22:00,
2013-04-05 12:32:00,68.0,48.0,-100.00,WNW,289,12.0,14.0,48,0.00,,,0.00,,2013-04-05 19:32:00,
2013-04-05 12:41:00,68.0,48.0,-100.00,WNW,289,12.0,14.0,48,0.00,,,0.00,,2013-04-05 19:41:00,
2013-04-05 12:51:00,68.0,48.0,-100.00,WNW,289,12.0,14.0,48,0.00,,,0.00,,2013-04-05 19:51:00,
2013-04-05 13:22:00,69.0,47.0,0.00,West,260,6.0,19.0,45,0.00,,,0.00,,2013-04-05 20:22:00,
2013-04-05 13:32:00,69.0,47.0,0.00,West,260,6.0,19.0,45,0.00,,,0.00,,2013-04-05 20:32:00,
2013-04-05 13:42:00,69.0,47.0,0.00,West,260,6.0,19.0,45,0.00,,,0.00,,2013-04-05 20:42:00,
2013-04-05 13:52:00,69.0,46.0,-100.00,West,281,4.0,16.0,43,0.00,,,0.00,,2013-04-05 20:52:00,
2013-04-05 14:02:00,69.0,44.0,-100.00,WNW,303,6.0,11.0,41,0.00,,,0.00,,2013-04-05 21:02:00,
2013-04-05 14:12:00,69.0,44.0,-100.00,WNW,303,6.0,11.0,41,0.00,,,0.00,,2013-04-05 21:12:00,
2013-04-05 14:22:00,70.0,45.0,-100.00,West,272,8.0,16.0,40,0.00,,,0.00,,2013-04-05 21:22:00,
2013-04-05 14:32:00,69.0,45.0,-100.00,WSW,257,10.0,15.0,42,0.00,,,0.00,,2013-04-05 21:32:00,
2013-04-05 14:42:00,69.0,45.0,-100.00,WSW,257,10.0,15.0,42,0.00,,,0.00,,2013-04-05 21:42:00,
2013-04-05 14:52:00,70.0,43.0,-100.00,NW,310,3.0,17.0,38,0.00,,,0.00,,2013-04-05 21:52:00,
2013-04-05 15:02:00,71.0,44.0,-100.00,WNW,299,4.0,11.0,38,0.00,,,0.00,,2013-04-05 22:02:00,
2013-04-05 15:12:00,71.0,44.0,-100.00,WNW,299,4.0,11.0,38,0.00,,,0.00,,2013-04-05 22:12:00,
2013-04-05 15:22:00,72.0,45.0,-100.00,West,260,4.0,13.0,38,0.00,,,0.00,,2013-04-05 22:22:00,
2013-04-05 15:32:00,72.0,44.0,-100.00,North,11,6.0,15.0,36,0.00,,,0.00,,2013-04-05 22:32:00,
2013-04-05 15:42:00,72.0,44.0,-100.00,North,11,6.0,15.0,36,0.00,,,0.00,,2013-04-05 22:42:00,
2013-04-05 15:52:00,71.0,42.0,-100.00,NNW,333,8.0,17.0,35,0.00,,,0.00,,2013-04-05 22:52:00,
2013-04-05 16:02:00,71.0,43.0,-100.00,West,278,2.0,15.0,36,0.00,,,0.00,,2013-04-05 23:02:00,
2013-04-05 16:11:00,71.0,43.0,-100.00,West,278,2.0,15.0,36,0.00,,,0.00,,2013-04-05 23:11:00,
2013-04-05 16:22:00,71.0,43.0,-100.00,NE,47,5.0,21.0,36,0.00,,,0.00,,2013-04-05 23:22:00,
2013-04-05 16:32:00,69.0,44.0,-100.00,WNW,282,3.0,21.0,41,0.00,,,0.00,,2013-04-05 23:32:00,
2013-04-05 16:41:00,69.0,44.0,-100.00,WNW,282,3.0,21.0,41,0.00,,,0.00,,2013-04-05 23:41:00,
2013-04-05 16:52:00,67.0,46.0,-100.00,West,260,8.0,23.0,47,0.00,,,0.00,,2013-04-05 23:52:00,
2013-04-05 17:02:00,65.0,45.0,-100.00,West,271,12.0,21.0,48,0.00,,,0.00,,2013-04-06 00:02:00,
2013-04-05 17:11:00,65.0,45.0,-100.00,West,271,12.0,21.0,48,0.00,,,0.00,,2013-04-06 00:11:00,
2013-04-05 17:22:00,64.0,46.0,-100.00,West,267,6.0,17.0,52,0.00,,,0.00,,2013-04-06 00:22:00,
2013-04-05 17:32:00,64.0,46.0,-100.00,West,267,6.0,17.0,52,0.00,,,0.00,,2013-04-06 00:32:00,
2013-04-05 17:41:00,64.0,46.0,-100.00,West,267,6.0,17.0,52,0.00,,,0.00,,2013-04-06 00:41:00,
2013-04-05 17:52:00,63.0,44.0,-100.00,WNW,288,7.0,18.0,50,0.00,,,0.00,,2013-04-06 00:52:00,
2013-04-05 18:02:00,63.0,44.0,-100.00,West,268,7.0,18.0,49,0.00,,,0.00,,2013-04-06 01:02:00,
2013-04-05 18:12:00,63.0,44.0,-100.00,West,268,7.0,18.0,49,0.00,,,0.00,,2013-04-06 01:12:00,
2013-04-05 18:21:00,63.0,44.0,-100.00,West,268,7.0,18.0,49,0.00,,,0.00,,2013-04-06 01:21:00,
2013-04-05 18:32:00,62.0,42.0,-100.00,North,2,6.0,17.0,47,0.00,,,0.00,,2013-04-06 01:32:00,
2013-04-05 18:41:00,62.0,42.0,-100.00,North,2,6.0,17.0,47,0.00,,,0.00,,2013-04-06 01:41:00,
2013-04-05 18:53:00,62.0,40.0,-100.00,West,281,11.0,14.0,44,0.00,,,0.00,,2013-04-06 01:53:00,
2013-04-05 19:02:00,62.0,40.0,-100.00,West,281,11.0,14.0,44,0.00,,,0.00,,2013-04-06 02:02:00,
2013-04-05 19:11:00,62.0,40.0,-100.00,West,281,11.0,14.0,44,0.00,,,0.00,,2013-04-06 02:11:00,
2013-04-05 19:22:00,62.0,39.0,-100.00,West,268,1.0,16.0,42,0.00,,,0.00,,2013-04-06 02:22:00,
2013-04-05 19:32:00,61.0,39.0,-100.00,West,260,5.0,10.0,44,0.00,,,0.00,,2013-04-06 02:32:00,
2013-04-05 19:42:00,61.0,39.0,-100.00,West,260,5.0,10.0,44,0.00,,,0.00,,2013-04-06 02:42:00,
2013-04-05 19:52:00,60.0,39.0,-100.00,SW,225,6.0,14.0,45,0.00,,,0.00,,2013-04-06 02:52:00,
2013-04-05 20:02:00,59.0,38.0,-100.00,West,264,5.0,10.0,46,0.00,,,0.00,,2013-04-06 03:02:00,
2013-04-05 20:11:00,59.0,38.0,-100.00,West,264,5.0,10.0,46,0.00,,,0.00,,2013-04-06 03:11:00,
2013-04-05 20:21:00,59.0,38.0,-100.00,West,281,5.0,12.0,45,0.00,,,0.00,,2013-04-06 03:21:00,
2013-04-05 20:33:00,59.0,38.0,-100.00,WSW,248,0.0,6.0,45,0.00,,,0.00,,2013-04-06 03:33:00,
2013-04-05 20:42:00,59.0,38.0,-100.00,WSW,248,0.0,6.0,45,0.00,,,0.00,,2013-04-06 03:42:00,
2013-04-05 20:53:00,59.0,38.0,-100.00,WNW,288,4.0,7.0,46,0.00,,,0.00,,2013-04-06 03:53:00,
2013-04-05 21:03:00,59.0,38.0,-100.00,NW,323,3.0,10.0,46,0.00,,,0.00,,2013-04-06 04:03:00,
2013-04-05 21:12:00,59.0,38.0,-100.00,NW,323,3.0,10.0,46,0.00,,,0.00,,2013-04-06 04:12:00,
2013-04-05 21:22:00,59.0,39.0,-100.00,West,272,12.0,12.0,48,0.00,,,0.00,,2013-04-06 04:22:00,
2013-04-05 21:32:00,59.0,39.0,-100.00,West,272,12.0,12.0,48,0.00,,,0.00,,2013-04-06 04:32:00,
2013-04-05 21:42:00,59.0,39.0,-100.00,West,272,12.0,12.0,48,0.00,,,0.00,,2013-04-06 04:42:00,
2013-04-05 21:52:00,59.0,37.0,-100.00,NW,319,7.0,12.0,43,0.00,,,0.00,,2013-04-06 04:52:00,
2013-04-05 22:02:00,59.0,37.0,-100.00,NW,319,7.0,12.0,43,0.00,,,0.00,,2013-04-06 05:02:00,
2013-04-05 22:12:00,59.0,37.0,-100.00,NW,319,7.0,12.0,43,0.00,,,0.00,,2013-04-06 05:12:00,
2013-04-05 22:22:00,59.0,43.0,-100.00,NW,305,6.0,12.0,55,0.00,,,0.00,,2013-04-06 05:22:00,
2013-04-05 22:32:00,58.0,44.0,-100.00,WNW,286,4.0,12.0,60,0.00,,,0.00,,2013-04-06 05:32:00,
2013-04-05 22:42:00,58.0,44.0,-100.00,WNW,286,4.0,12.0,60,0.00,,,0.00,,2013-04-06 05:42:00,
2013-04-05 22:51:00,57.0,44.0,-100.00,West,261,6.0,10.0,62,0.00,,,0.00,,2013-04-06 05:51:00,
2013-04-05 23:02:00,57.0,44.0,-100.00,WNW,293,2.0,9.0,61,0.00,,,0.00,,2013-04-06 06:02:00,
2013-04-05 23:11:00,57.0,44.0,-100.00,WNW,293,2.0,9.0,61,0.00,,,0.00,,2013-04-06 06:11:00,
2013-04-05 23:22:00,57.0,44.0,-100.00,SW,222,4.0,10.0,61,0.00,,,0.00,,2013-04-06 06:22:00,
2013-04-05 23:32:00,57.0,44.0,-100.00,WNW,296,2.0,10.0,61,0.00,,,0.00,,2013-04-06 06:32:00,
2013-04-05 23:42:00,57.0,44.0,-100.00,WNW,296,2.0,10.0,61,0.00,,,0.00,,2013-04-06 06:42:00,
2013-04-05 23:52:00,57.0,45.0,-100.00,WSW,255,3.0,11.0,63,0.00,,,0.00,,2013-04-06 06:52:00,